Home   Weather   Mount Vernon   Past weeks
Flag for USA

Past Weather in Mount Vernon, USA — Yesterday and Last 2 Weeks

Now
45 °F

Mostly cloudy.


Feels Like: 37 °F
Forecast: 53 / 40 °F
Wind: 20 mph from Northwest

Location: Knox County Airport

Current Time: Oct 16, 2019 at 11:57:51 pm

Latest Report: Oct 16, 2019 at 11:20 pm


Visibility: 10 mi

Pressure: 29.83 "Hg

Humidity: 87%

Dew Point: 41 °F

Location of Mount VernonLocation

Past Weather in Mount Vernon — Graph

°F

Mount Vernon Temperature Yesterday

Maximum temperature yesterday: 72 °F (at 2:56 pm)
Minimum temperature yesterday: 36 °F (at 3:55 am)
Average temperature yesterday: 54 °F

High & Low Weather Summary for the Past Weeks

 TemperatureHumidityPressure
High91 °F (Oct 2, 2:57 pm)100% (Oct 3, 1:59 am)30.34 "Hg (Oct 3, 1:59 am)
Low32 °F (Oct 13, 6:55 am)23% (Oct 15, 3:55 pm)29.66 "Hg (Oct 16, 5:37 am)
Average58 °F69%30.09 "Hg
* Reported Oct 1 10:00 pm — Oct 16 10:35 pm, Mount Vernon. Weather by CustomWeather, © 2019

Note: Actual official high and low records may vary slightly from our data, if they occured in-between our weather recording intervals... More about our weather records

Advertising

Mount Vernon Weather History for the Previous 24 Hours

Scroll right to see more
 ConditionsComfort  
Time TempWeatherWind HumidityBarometerVisibility
10:35 pm
Wed, Oct 16
45 °FLight rain. Partly cloudy.14 mph87%29.82 "Hg7 mi
9:58 pm45 °FOvercast.18 mph87%29.82 "Hg10 mi
9:35 pm45 °FOvercast.18 mph87%29.81 "Hg7 mi
9:15 pm45 °FPassing clouds.22 mph87%29.80 "Hg7 mi
8:55 pm45 °FMostly cloudy.16 mph87%29.80 "Hg10 mi
8:36 pm45 °FOvercast.20 mph87%29.80 "Hg10 mi
7:55 pm45 °FMostly cloudy.15 mph87%29.79 "Hg10 mi
7:36 pm45 °FMostly cloudy.20 mph87%29.78 "Hg10 mi
7:15 pm45 °FDrizzle. Overcast.17 mph87%29.77 "Hg7 mi
6:56 pm45 °FLight rain. Overcast.16 mph87%29.77 "Hg7 mi
6:38 pm45 °FOvercast.16 mph87%29.77 "Hg10 mi
6:15 pm45 °FDrizzle. Mostly cloudy.13 mph93%29.77 "Hg3 mi
5:55 pm45 °FFog.14 mph87%29.77 "Hg3 mi
5:35 pm46 °FCloudy.15 mph82%29.76 "Hg7 mi
5:16 pm46 °FLight rain. Broken clouds.13 mph82%29.76 "Hg10 mi
4:58 pm46 °FRain. Cloudy.14 mph82%29.76 "Hg5 mi
4:35 pm46 °FRain. Cloudy.21 mph82%29.76 "Hg4 mi
4:15 pm46 °FBroken clouds.16 mph76%29.75 "Hg10 mi
3:56 pm46 °FBroken clouds.12 mph76%29.75 "Hg10 mi
3:36 pm48 °FPartly sunny.15 mph71%29.75 "Hg10 mi
2:55 pm46 °FBroken clouds.10 mph76%29.75 "Hg10 mi
2:35 pm46 °FBroken clouds.14 mph71%29.76 "Hg10 mi
1:57 pm46 °FMostly cloudy.13 mph71%29.76 "Hg10 mi
1:38 pm46 °FMore clouds than sun.13 mph71%29.76 "Hg10 mi
1:15 pm46 °FMore clouds than sun.10 mph71%29.76 "Hg10 mi
12:55 pm45 °FOvercast.15 mph76%29.77 "Hg10 mi
12:35 pm46 °FMostly cloudy.15 mph71%29.77 "Hg10 mi
12:17 pm46 °FCloudy.9 mph71%29.76 "Hg10 mi
11:58 am46 °FMostly cloudy.16 mph71%29.76 "Hg10 mi
11:35 am46 °FMostly cloudy.14 mph71%29.75 "Hg10 mi
11:15 am46 °FCloudy.14 mph76%29.74 "Hg10 mi
10:37 am50 °FBroken clouds.17 mph76%29.74 "Hg10 mi
10:19 am48 °FScattered clouds.12 mph82%29.74 "Hg10 mi
9:55 am46 °FBroken clouds.15 mph87%29.73 "Hg10 mi
9:35 am46 °FMore clouds than sun.13 mph93%29.72 "Hg10 mi
9:15 am46 °FCloudy.7 mph93%29.72 "Hg7 mi
8:57 am46 °FMostly cloudy.3 mph93%29.72 "Hg7 mi
8:39 am46 °FBroken clouds.5 mph93%29.71 "Hg10 mi
8:15 am46 °FRain. Broken clouds.No wind93%29.71 "Hg7 mi
7:55 am45 °FLight rain. Partly sunny.3 mph93%29.71 "Hg7 mi
7:35 am46 °FRain. Mostly cloudy.No wind87%29.69 "Hg10 mi
7:17 am46 °FRain. Mostly cloudy.3 mph87%29.69 "Hg7 mi
6:59 am46 °FLight rain. Mostly cloudy.8 mph87%29.71 "Hg10 mi
6:35 am46 °FRain. Overcast.16 mph87%29.71 "Hg5 mi
6:15 am50 °FRain. Overcast.18 mph88%29.70 "Hg10 mi
5:55 am52 °FPartly cloudy.25 mph82%29.70 "Hg10 mi
5:37 am59 °FPassing clouds.5 mph88%29.66 "Hg10 mi
4:55 am61 °FPassing clouds.7 mph83%29.67 "Hg10 mi
4:35 am61 °FPassing clouds.9 mph83%29.68 "Hg10 mi
4:15 am63 °FPassing clouds.8 mph77%29.70 "Hg10 mi
3:57 am63 °FClear.13 mph77%29.71 "Hg10 mi
3:39 am63 °FPassing clouds.10 mph73%29.71 "Hg10 mi
3:15 am64 °FPassing clouds.10 mph68%29.72 "Hg10 mi
2:55 am63 °FThundershowers. Partly cloudy.8 mph73%29.72 "Hg10 mi
2:36 am63 °FPassing clouds.8 mph73%29.73 "Hg10 mi
1:59 am61 °FPassing clouds.8 mph72%29.75 "Hg10 mi
1:35 am61 °FMostly cloudy.7 mph72%29.75 "Hg10 mi
1:15 am59 °FPassing clouds.7 mph72%29.76 "Hg10 mi
12:56 am59 °FPassing clouds.5 mph68%29.77 "Hg10 mi
12:19 am57 °FClear.6 mph67%29.79 "Hg10 mi
11:55 pm
Tue, Oct 15
57 °FClear.6 mph63%29.80 "Hg10 mi
11:35 pm57 °FClear.6 mph63%29.80 "Hg10 mi
Weather by CustomWeather, © 2019

See weather overview